TIROS 3

Satellite information

Favourite Embed

Satellite Type and Status

PAYLOADIN ORBIT

Key statistics

Satellite TIROS 3 at a glance.

Uptime

23432

Days in orbit

Revolutions

≈ 14.5

Per day

Orbit

LEO

Low Earth Orbit

Inclination

47.9

Latest

Satellite identification and parameters

Extended collection of information and parameters for TIROS 3.

Object identification

Identified? True

Debris? False

Object name: TIROS 3

International designator: 1961-017A

Object number (NORAD): 162

Object ID (CCSDS): 162

Country: UNITED STATES OF AMERICA (US)

Current information (Y/N): Y

RCS size: MEDIUM

Orbital parameters

Period: 99.638 minutes

Inclination: 47.8982 deg

SMA: 7119.425 km

Apoapsis: 772.695 km

Periapsis: 709.884 km

RAAN: 221.8811 deg

Eccentricy: 0.00441122

Argument of periapsis: 213.5069 deg

Mean anomaly: 146.3031 deg

Mean motion: 14.45224786 rev/day

Mean motion (dot): 0.0000018 rev/day2

B* drag term: 0.000096164296 1/REarth

Two-line elements (TLE)

Creation date: Sept. 6, 2025, 2:09 a.m.

Reference frame: TEME

Reference center: EARTH

Epoch: Sept. 5, 2025, 9:37 p.m. UTC

TLE line 0: 0 TIROS 3

TLE line 1: 1 00162U 61017A 25248.90103745 .00000180 00000-0 96164-4 0 9993

TLE line 2: 2 00162 47.8982 221.8811 0044112 213.5069 146.3031 14.45224786350650

Live tracking on map

Real-time ground track for satellite TIROS 3.

In-orbit conjunctions

A list of the most updated potential collisions computed for object TIROS 3.

Target Orbit TCA Probability of collision Miss distance Type
IRIDIUM 73 LEO 2025-08-16 09:09:57 0.0001459655 633.0 (m) PAYLOAD
THORAD AGENA D DEB SSO 2025-02-27 09:01:58 0.0001014383 564.0 (m) DEBRIS
NOAA 16 DEB SSO 2025-02-24 15:59:01 0.00056769 80.0 (m) DEBRIS

Associated space launch

TIROS 3 was lifted into orbit during the mission ‘Delta DM-19 | Tiros-3’, on board a Delta DM-19 space rocket.

The launch took place on July 12, 1961, 10:25 a.m. from Space Launch Complex 17A.

For more information about the launch, click the button.

Launch to space Delta DM-19 | Tiros-3
Delta DM-19 | Tiros-3

Agency: N/A

Status: Launch Successful

Launch date: July 12, 1961, 10:25 a.m. UTC

Rocket: Delta DM-19

Launch pad: Space Launch Complex 17A

Location: Cape Canaveral SFS, FL, USA

...

Latest news about this satellite

There are no fresh news available about this satellite. Check back as we update our databases every day.


Newsletter sign-up

Weekly statistics, charts and insights to help you stay on top of the space industry.